Regional Weather Roundup
Issued by NWS Green Bay, WI

Home | Current Version | Previous Version | Text Only | Print | Product List | Glossary On
Versions: 1 2 3 4 5 6 7 8 9 10 11 12 13 14 15 16 17 18 19 20 21 22 23 24 25 26 27 28 29 30 31 32 33 34 35 36 37 38 39 40 41 42 43 44 45 46 47 48 49 50
000
ASUS43 KGRB 230211
RWRGRB

NORTH-CENTRAL AND NORTHEAST WISCONSIN REGIONAL WEATHER ROUNDUP
NATIONAL WEATHER SERVICE GREEN BAY WI
800 PM CST WED FEB 22 2017

WIZ005-009-010>012-018-019-230300-
NORTH CENTRAL WISCONSIN

CITY           SKY/WX    TMP DP  RH WIND       PRES   REMARKS
IRONWOOD       LGT RAIN  36  34  92 NE3       29.64R
MANITOWISH WTR LGT RAIN  38  38 100 N7        29.60R
ARBOR VITAE    CLOUDY    42  41  97 N5          N/A  FOG
EAGLE RIVER    LGT RAIN  40  40 100 CALM      29.57F VSB 1/4
LAND O LAKES   LGT RAIN  40  40 100 CALM      29.59F
RHINELANDER    PTCLDY    43  42  97 N5        29.55F
PHILLIPS       FOG       41  41 100 N6        29.56S VSB 1
ANTIGO         MOCLDY    37  35  93 NE6       29.54F
TOMAHAWK       PTCLDY    40  38  93 CALM      29.55F
MERRILL        NOT AVBL
$$

WIZ013-073-230300-
NORTHEAST WISCONSIN

CITY           SKY/WX    TMP DP  RH WIND       PRES   REMARKS
IRON MOUNTAIN  RAIN      42  39  89 CALM      29.57R FOG
MARINETTE      MOCLDY    39  38  96 N7        29.56F FOG
OCONTO         MOCLDY    40  38  93 CALM      29.54S
$$

WIZ017-030-035>037-045-230300-
CENTRAL WISCONSIN

CITY           SKY/WX    TMP DP  RH WIND       PRES   REMARKS
MEDFORD        CLEAR     39  37  93 CALM      29.54S
WAUSAU         PTCLDY    44  38  79 CALM      29.52F
MOSINEE        CLEAR     43  39  87 CALM      29.55S
MARSHFIELD     CLEAR     42  38  85 SW3       29.53S
WISC RAPIDS    CLEAR     40  36  86 CALM      29.55F
STEVENS POINT  CLOUDY    39  35  86 CALM      29.55S
WAUPACA        CLEAR     51  38  59 W3        29.55R
SHAWANO        MOCLDY    47  38  70 CALM      29.54S
CLINTONVILLE   MOCLDY    45  36  70 CALM      29.54R
WAUTOMA        CLEAR     42  37  82 CALM      29.55R
$$

WIZ038-039-048-051-230300-
FOX VALLEY

CITY           SKY/WX    TMP DP  RH WIND       PRES   REMARKS
NWS GREEN BAY  PTCLDY    45  42  89 NE5       29.53F
APPLETON       MOCLDY    52  39  62 VRB5      29.52F
OSHKOSH        PTCLDY    52  40  63 VRB3      29.53S
FOND DU LAC    MOCLDY    56  43  61 NE5       29.53S
$$

WIZ022-050-052-230300-
EAST CENTRAL WISCONSIN

CITY           SKY/WX    TMP DP  RH WIND       PRES   REMARKS
EPHRAIM        CLOUDY    39  39 100 E3        29.54F FOG
WASHINGTON ISL CLOUDY    38  37  99 N3        29.57R FOG
STURGEON BAY   CLOUDY    40  39  97 E8        29.54F FOG
MANITOWOC      CLOUDY    43  40  89 CALM      29.55S
SHEBOYGAN      CLEAR     44  41  89 NW3       29.53F
$$

LMZ563-521-522-541>543-230300-
LAKESHORE

STATION/POSITION TIME  TEMP    WIND        PRES    VSBY  WAVE
                       AIR SEA DIR/SP/G                  HT/PER
                 (UTC) (F)     (DEG/KT/KT) (MB)    (MI)  (FT/S)
SHEBOYGAN LKSHOR 0200   48     200/  4/  6 1000.1F
KEWAUNEE LKSHORE 0130   39      30/  5/  6 1000.4R
NORTHPORT PIER   0140   40     160/  2/  8 1001.7R
SISTER BAY LKSHO 0135   40     150/  5/  7   N/A
CHAMBERS ISLAND  0140   42      80/  4/  7 1000.7S
MENOMINEE LKSHOR 0148   37      10/  5/  6 1000.1F
$$



USA.gov is the U.S. government's official web portal to all federal, state and local government web resources and services.